• In Belarus
  • List of Countries
  • For 7 days
  • Water Temperature
  • Weather Map
  • Weather Widgets
  • user-avatar
    Login

    Hourly Weather Takuarembo

    Today, 22 February, Saturday

    Time Temperature Precipitation Wind Pressure Humidity
    00:00 +11°C° 0 mm 3 mps 754 mmHg 72%
    01:00 +10°C° 0 mm 2 mps 754 mmHg 78%
    02:00 +10°C° 0 mm 2 mps 754 mmHg 84%
    03:00 +9°C° 0 mm 2 mps 755 mmHg 86%
    04:00 +9°C° 0 mm 2 mps 755 mmHg 88%
    05:00 +9°C° 0 mm 2 mps 755 mmHg 90%
    06:00 +12°C° 0 mm 2 mps 755 mmHg 81%
    07:00 +13°C° 0 mm 3 mps 755 mmHg 72%
    08:00 +17°C° 0 mm 4 mps 756 mmHg 63%
    09:00 +18°C° 0 mm 4 mps 755 mmHg 56%
    10:00 +20°C° 0 mm 4 mps 755 mmHg 50%
    11:00 +22°C° 0 mm 4 mps 755 mmHg 43%
    12:00 +23°C° 0 mm 4 mps 754 mmHg 40%
    13:00 +25°C° 0 mm 4 mps 754 mmHg 37%
    14:00 +26°C° 0 mm 4 mps 753 mmHg 34%
    15:00 +26°C° 0 mm 3 mps 753 mmHg 35%
    16:00 +25°C° 0 mm 3 mps 752 mmHg 36%
    17:00 +25°C° 0 mm 3 mps 752 mmHg 37%
    18:00 +23°C° 0 mm 2 mps 752 mmHg 43%
    19:00 +19°C° 0 mm 2 mps 752 mmHg 48%
    20:00 +18°C° 0 mm 1 mps 752 mmHg 54%
    21:00 +16°C° 0 mm 1 mps 752 mmHg 58%
    22:00 +15°C° 0 mm 2 mps 753 mmHg 62%
    23:00 +14°C° 0 mm 2 mps 753 mmHg 66%

    Tomorrow, 23 February, Sunday

    Time Temperature Precipitation Wind Pressure Humidity
    00:00 +14°C° 0 mm 2 mps 752 mmHg 73%
    01:00 +13°C° 0 mm 2 mps 752 mmHg 79%
    02:00 +13°C° 0 mm 2 mps 752 mmHg 86%
    03:00 +12°C° 0 mm 2 mps 752 mmHg 88%
    04:00 +12°C° 0 mm 2 mps 752 mmHg 90%
    05:00 +12°C° 0 mm 2 mps 752 mmHg 93%
    06:00 +14°C° 0 mm 2 mps 753 mmHg 83%
    07:00 +16°C° 0 mm 3 mps 753 mmHg 74%
    08:00 +19°C° 0 mm 3 mps 753 mmHg 64%
    09:00 +21°C° 0 mm 3 mps 753 mmHg 56%
    10:00 +24°C° 0 mm 3 mps 752 mmHg 49%
    11:00 +26°C° 0 mm 3 mps 752 mmHg 41%
    12:00 +27°C° 0 mm 3 mps 751 mmHg 38%
    13:00 +28°C° 0 mm 3 mps 750 mmHg 35%
    14:00 +29°C° 0 mm 3 mps 750 mmHg 32%
    15:00 +29°C° 0 mm 3 mps 749 mmHg 33%
    16:00 +28°C° 0 mm 3 mps 749 mmHg 35%
    17:00 +28°C° 0 mm 3 mps 748 mmHg 36%
    18:00 +26°C° 0 mm 3 mps 748 mmHg 43%
    19:00 +23°C° 0 mm 2 mps 748 mmHg 50%
    20:00 +20°C° 0 mm 2 mps 748 mmHg 57%
    21:00 +19°C° 0 mm 2 mps 748 mmHg 61%
    22:00 +18°C° 0 mm 2 mps 748 mmHg 65%
    23:00 +17°C° 0 mm 2 mps 748 mmHg 69%

    Day after tomorrow, 24 February, Monday

    Time Temperature Precipitation Wind Pressure Humidity
    00:00 +17°C° 0 mm 2 mps 748 mmHg 75%
    01:00 +16°C° 0 mm 2 mps 747 mmHg 82%
    02:00 +14°C° 0 mm 3 mps 747 mmHg 88%
    03:00 +15°C° 0 mm 2 mps 747 mmHg 90%
    04:00 +14°C° 0 mm 2 mps 747 mmHg 92%
    05:00 +14°C° 0 mm 2 mps 747 mmHg 94%
    06:00 +17°C° 0 mm 3 mps 746 mmHg 85%
    07:00 +19°C° 0 mm 3 mps 746 mmHg 76%
    08:00 +21°C° 0 mm 3 mps 746 mmHg 67%
    09:00 +25°C° 0 mm 3 mps 746 mmHg 59%
    10:00 +28°C° 0 mm 3 mps 746 mmHg 51%
    11:00 +30°C° 0 mm 3 mps 746 mmHg 43%
    12:00 +33°C° 0 mm 3 mps 745 mmHg 37%
    13:00 +34°C° 0 mm 3 mps 744 mmHg 32%
    14:00 +35°C° 0 mm 4 mps 743 mmHg 26%
    15:00 +34°C° 0 mm 3 mps 743 mmHg 27%
    16:00 +34°C° 0 mm 3 mps 742 mmHg 28%
    17:00 +33°C° 0 mm 3 mps 742 mmHg 30%
    18:00 +30°C° 0 mm 3 mps 742 mmHg 34%
    19:00 +27°C° 0 mm 2 mps 743 mmHg 38%
    20:00 +24°C° 0 mm 2 mps 743 mmHg 42%
    21:00 +24°C° 0 mm 1 mps 743 mmHg 43%
    22:00 +23°C° 0 mm 1 mps 743 mmHg 45%
    23:00 +22°C° 0 mm 1 mps 743 mmHg 46%

    25 February, Tuesday

    Time Temperature Precipitation Wind Pressure Humidity
    00:00 +22°C° 0 mm 1 mps 743 mmHg 48%
    01:00 +21°C° 0 mm 1 mps 743 mmHg 50%
    02:00 +21°C° 0 mm 1 mps 743 mmHg 51%
    03:00 +20°C° 0 mm 1 mps 743 mmHg 53%
    04:00 +20°C° 0 mm 1 mps 743 mmHg 54%
    05:00 +19°C° 0 mm 1 mps 744 mmHg 55%
    06:00 +22°C° 0 mm 1 mps 744 mmHg 49%
    07:00 +25°C° 0 mm 1 mps 744 mmHg 43%
    08:00 +28°C° 0 mm 2 mps 745 mmHg 37%
    09:00 +30°C° 0 mm 2 mps 745 mmHg 32%
    10:00 +32°C° 0 mm 2 mps 744 mmHg 28%
    11:00 +35°C° 0 mm 2 mps 744 mmHg 23%
    12:00 +36°C° 0 mm 3 mps 744 mmHg 21%
    13:00 +37°C° 0 mm 3 mps 744 mmHg 20%
    14:00 +38°C° 0 mm 4 mps 744 mmHg 18%
    15:00 +36°C° 0 mm 5 mps 744 mmHg 23%
    16:00 +34°C° 0 mm 6 mps 743 mmHg 28%
    17:00 +32°C° 0 mm 7 mps 743 mmHg 33%
    18:00 +29°C° 0 mm 6 mps 744 mmHg 38%
    19:00 +27°C° 0 mm 6 mps 745 mmHg 43%
    20:00 +24°C° 0 mm 6 mps 745 mmHg 48%
    21:00 +23°C° 0 mm 6 mps 746 mmHg 51%
    22:00 +21°C° 0 mm 5 mps 746 mmHg 54%
    23:00 +20°C° 0 mm 5 mps 747 mmHg 57%

    26 February, Wednesday

    Time Temperature Precipitation Wind Pressure Humidity
    00:00 +19°C° 0 mm 4 mps 747 mmHg 63%
    01:00 +18°C° 0 mm 3 mps 747 mmHg 68%
    02:00 +17°C° 0 mm 2 mps 747 mmHg 74%
    03:00 +16°C° 0 mm 2 mps 747 mmHg 79%
    04:00 +15°C° 0 mm 2 mps 747 mmHg 84%
    05:00 +15°C° 0 mm 2 mps 747 mmHg 89%
    06:00 +17°C° 0 mm 2 mps 747 mmHg 81%
    07:00 +19°C° 0 mm 3 mps 748 mmHg 72%
    08:00 +21°C° 0 mm 4 mps 748 mmHg 63%
    09:00 +23°C° 0 mm 4 mps 748 mmHg 52%
    10:00 +27°C° 0 mm 4 mps 748 mmHg 41%
    11:00 +29°C° 0 mm 4 mps 748 mmHg 30%
    12:00 +30°C° 0 mm 3 mps 747 mmHg 28%
    13:00 +31°C° 0 mm 3 mps 747 mmHg 26%
    14:00 +33°C° 0 mm 3 mps 746 mmHg 24%
    15:00 +31°C° 0 mm 3 mps 746 mmHg 25%
    16:00 +31°C° 0 mm 3 mps 746 mmHg 25%
    17:00 +31°C° 0 mm 3 mps 746 mmHg 26%
    18:00 +28°C° 0 mm 3 mps 746 mmHg 31%
    19:00 +26°C° 0 mm 4 mps 747 mmHg 36%
    20:00 +23°C° 0 mm 4 mps 747 mmHg 41%
    21:00 +21°C° 0 mm 4 mps 748 mmHg 51%
    22:00 +20°C° 0 mm 5 mps 748 mmHg 62%
    23:00 +17°C° 0 mm 5 mps 749 mmHg 72%

    27 February, Thursday

    Time Temperature Precipitation Wind Pressure Humidity
    00:00 +17°C° 0 mm 4 mps 749 mmHg 76%
    01:00 +15°C° 0 mm 4 mps 749 mmHg 80%
    02:00 +14°C° 0 mm 3 mps 749 mmHg 84%
    03:00 +13°C° 0 mm 3 mps 749 mmHg 86%
    04:00 +14°C° 0 mm 2 mps 749 mmHg 88%
    05:00 +14°C° 0 mm 2 mps 749 mmHg 90%
    06:00 +16°C° 0 mm 2 mps 750 mmHg 81%
    07:00 +18°C° 0 mm 2 mps 750 mmHg 72%
    08:00 +20°C° 0 mm 2 mps 750 mmHg 63%
    09:00 +23°C° 0 mm 2 mps 750 mmHg 54%
    10:00 +25°C° 0 mm 2 mps 750 mmHg 45%
    11:00 +27°C° 0 mm 2 mps 750 mmHg 36%
    12:00 +28°C° 0 mm 2 mps 749 mmHg 33%
    13:00 +29°C° 0 mm 3 mps 749 mmHg 29%
    14:00 +30°C° 0 mm 3 mps 748 mmHg 26%
    15:00 +30°C° 0 mm 3 mps 748 mmHg 25%
    16:00 +29°C° 0 mm 3 mps 747 mmHg 25%
    17:00 +29°C° 0 mm 3 mps 747 mmHg 24%
    18:00 +27°C° 0 mm 3 mps 747 mmHg 29%
    19:00 +24°C° 0 mm 2 mps 747 mmHg 33%
    20:00 +20°C° 0 mm 2 mps 748 mmHg 37%
    21:00 +19°C° 0 mm 2 mps 748 mmHg 41%
    22:00 +18°C° 0 mm 2 mps 748 mmHg 46%
    23:00 +17°C° 0 mm 3 mps 749 mmHg 50%
    Show more